• Em Portugal
  • Lista de países
  • Para 7 dias
  • Temperatura da água
  • Mapas de satélite
  • Mapa do tempo
  • Widgets de tempo
  • user-avatar
    Iniciar Sessão

    Previsão horária em Artemovsk

    Hoje, 20 Outubro, Sábado

    Tempo Temperatura Precipitação Vento Pressão Humidade
    00:00 +14°C° 0 mm 2 m/s 751 mmHg 70%
    01:00 +14°C° 0 mm 2 m/s 751 mmHg 73%
    02:00 +14°C° 0 mm 1 m/s 751 mmHg 76%
    03:00 +13°C° 0 mm 1 m/s 750 mmHg 78%
    04:00 +13°C° 0 mm 1 m/s 750 mmHg 80%
    05:00 +13°C° 0 mm 1 m/s 750 mmHg 81%
    06:00 +13°C° 0 mm 1 m/s 750 mmHg 83%
    07:00 +14°C° 0 mm 1 m/s 750 mmHg 79%
    08:00 +14°C° 0 mm 1 m/s 750 mmHg 75%
    09:00 +15°C° 0 mm 1 m/s 750 mmHg 71%
    10:00 +18°C° 0 mm 1 m/s 750 mmHg 65%
    11:00 +19°C° 0 mm 1 m/s 750 mmHg 58%
    12:00 +21°C° 0 mm 1 m/s 750 mmHg 52%
    13:00 +21°C° 0 mm 1 m/s 750 mmHg 49%
    14:00 +22°C° 0 mm 1 m/s 750 mmHg 47%
    15:00 +22°C° 0 mm 1 m/s 750 mmHg 44%
    16:00 +21°C° 0 mm 1 m/s 750 mmHg 47%
    17:00 +20°C° 0 mm 1 m/s 750 mmHg 51%
    18:00 +19°C° 0 mm 1 m/s 750 mmHg 54%
    19:00 +19°C° 0 mm 1 m/s 750 mmHg 57%
    20:00 +18°C° 0 mm 1 m/s 750 mmHg 59%
    21:00 +16°C° 0 mm 1 m/s 750 mmHg 61%
    22:00 +16°C° 0 mm 1 m/s 750 mmHg 64%
    23:00 +16°C° 0 mm 1 m/s 750 mmHg 66%

    Amanhã, 21 Outubro, Domingo

    Tempo Temperatura Precipitação Vento Pressão Humidade
    00:00 +14°C° 0 mm 0 m/s 750 mmHg 68%
    01:00 +14°C° 0 mm 0 m/s 750 mmHg 70%
    02:00 +14°C° 0 mm 1 m/s 750 mmHg 72%
    03:00 +14°C° 0 mm 1 m/s 750 mmHg 74%
    04:00 +14°C° 0 mm 1 m/s 750 mmHg 76%
    05:00 +13°C° 0 mm 1 m/s 750 mmHg 78%
    06:00 +13°C° 0 mm 1 m/s 750 mmHg 80%
    07:00 +14°C° 0 mm 1 m/s 750 mmHg 77%
    08:00 +15°C° 0 mm 1 m/s 750 mmHg 73%
    09:00 +15°C° 0 mm 2 m/s 751 mmHg 70%
    10:00 +17°C° 0 mm 2 m/s 751 mmHg 64%
    11:00 +18°C° 0 mm 2 m/s 751 mmHg 57%
    12:00 +20°C° 0 mm 2 m/s 751 mmHg 51%
    13:00 +21°C° 0 mm 2 m/s 751 mmHg 49%
    14:00 +21°C° 0 mm 2 m/s 751 mmHg 46%
    15:00 +23°C° 0 mm 2 m/s 751 mmHg 44%
    16:00 +21°C° 0 mm 2 m/s 751 mmHg 48%
    17:00 +20°C° 0 mm 2 m/s 751 mmHg 52%
    18:00 +19°C° 0 mm 2 m/s 751 mmHg 56%
    19:00 +18°C° 0 mm 3 m/s 751 mmHg 59%
    20:00 +18°C° 0 mm 3 m/s 752 mmHg 63%
    21:00 +17°C° 0 mm 3 m/s 752 mmHg 67%
    22:00 +17°C° 0.2 mm 3 m/s 752 mmHg 71%
    23:00 +16°C° 0.2 mm 3 m/s 752 mmHg 75%

    Depois de amanhã, 22 Outubro, Segunda-feira

    Tempo Temperatura Precipitação Vento Pressão Humidade
    00:00 +16°C° 0.2 mm 2 m/s 752 mmHg 79%
    01:00 +16°C° 1 mm 3 m/s 752 mmHg 82%
    02:00 +16°C° 1 mm 3 m/s 752 mmHg 85%
    03:00 +14°C° 1 mm 3 m/s 752 mmHg 88%
    04:00 +14°C° 2 mm 4 m/s 752 mmHg 89%
    05:00 +14°C° 2 mm 4 m/s 752 mmHg 90%
    06:00 +14°C° 2 mm 4 m/s 752 mmHg 91%
    07:00 +14°C° 1.6 mm 5 m/s 752 mmHg 89%
    08:00 +14°C° 1.6 mm 5 m/s 752 mmHg 88%
    09:00 +14°C° 1.6 mm 5 m/s 753 mmHg 86%
    10:00 +14°C° 0.8 mm 5 m/s 753 mmHg 85%
    11:00 +14°C° 0.8 mm 5 m/s 753 mmHg 83%
    12:00 +14°C° 0.8 mm 5 m/s 753 mmHg 81%
    13:00 +14°C° 0.9 mm 5 m/s 753 mmHg 80%
    14:00 +14°C° 0.9 mm 5 m/s 752 mmHg 80%
    15:00 +14°C° 0.9 mm 5 m/s 752 mmHg 80%
    16:00 +13°C° 0.8 mm 5 m/s 752 mmHg 79%
    17:00 +13°C° 0.8 mm 4 m/s 752 mmHg 78%
    18:00 +13°C° 0.8 mm 4 m/s 752 mmHg 77%
    19:00 +13°C° 0.2 mm 4 m/s 752 mmHg 77%
    20:00 +13°C° 0.2 mm 3 m/s 752 mmHg 78%
    21:00 +13°C° 0.2 mm 3 m/s 752 mmHg 79%
    22:00 +14°C° 0.1 mm 2 m/s 752 mmHg 81%
    23:00 +14°C° 0.1 mm 2 m/s 751 mmHg 83%

    23 Outubro, Terça-feira

    Tempo Temperatura Precipitação Vento Pressão Humidade
    00:00 +14°C° 0.1 mm 2 m/s 751 mmHg 85%
    01:00 +14°C° 0 mm 2 m/s 751 mmHg 86%
    02:00 +14°C° 0 mm 2 m/s 751 mmHg 87%
    03:00 +14°C° 0 mm 2 m/s 751 mmHg 88%
    04:00 +14°C° 0 mm 2 m/s 751 mmHg 89%
    05:00 +14°C° 0 mm 2 m/s 751 mmHg 90%
    06:00 +14°C° 0 mm 2 m/s 750 mmHg 92%
    07:00 +14°C° 0 mm 2 m/s 750 mmHg 90%
    08:00 +14°C° 0 mm 2 m/s 751 mmHg 89%
    09:00 +13°C° 0 mm 3 m/s 751 mmHg 88%
    10:00 +14°C° 0 mm 3 m/s 751 mmHg 81%
    11:00 +16°C° 0 mm 3 m/s 751 mmHg 74%
    12:00 +17°C° 0 mm 4 m/s 750 mmHg 67%
    13:00 +17°C° 0 mm 4 m/s 750 mmHg 65%
    14:00 +18°C° 0 mm 4 m/s 750 mmHg 63%
    15:00 +18°C° 0 mm 4 m/s 750 mmHg 61%
    16:00 +17°C° 0 mm 4 m/s 750 mmHg 63%
    17:00 +16°C° 0 mm 3 m/s 750 mmHg 64%
    18:00 +16°C° 0 mm 2 m/s 749 mmHg 66%
    19:00 +15°C° 0 mm 2 m/s 749 mmHg 68%
    20:00 +14°C° 0 mm 2 m/s 749 mmHg 70%
    21:00 +14°C° 0 mm 2 m/s 749 mmHg 71%
    22:00 +13°C° 0 mm 2 m/s 749 mmHg 72%
    23:00 +13°C° 0 mm 2 m/s 749 mmHg 72%

    24 Outubro, Quarta-feira

    Tempo Temperatura Precipitação Vento Pressão Humidade
    00:00 +12°C° 0 mm 2 m/s 749 mmHg 72%
    01:00 +12°C° 0 mm 2 m/s 748 mmHg 72%
    02:00 +10°C° 0 mm 2 m/s 748 mmHg 73%
    03:00 +10°C° 0 mm 2 m/s 748 mmHg 73%
    04:00 +9°C° 0 mm 2 m/s 747 mmHg 74%
    05:00 +9°C° 0 mm 2 m/s 747 mmHg 75%
    06:00 +9°C° 0 mm 2 m/s 746 mmHg 76%
    07:00 +10°C° 0 mm 3 m/s 746 mmHg 74%
    08:00 +10°C° 0 mm 4 m/s 746 mmHg 71%
    09:00 +11°C° 0 mm 4 m/s 745 mmHg 68%
    10:00 +13°C° 0 mm 5 m/s 745 mmHg 60%
    11:00 +14°C° 0 mm 5 m/s 744 mmHg 52%
    12:00 +15°C° 0 mm 6 m/s 743 mmHg 45%
    13:00 +16°C° 0 mm 6 m/s 742 mmHg 45%
    14:00 +16°C° 0 mm 7 m/s 741 mmHg 45%
    15:00 +17°C° 0 mm 7 m/s 740 mmHg 46%
    16:00 +16°C° 0 mm 7 m/s 740 mmHg 52%
    17:00 +15°C° 0 mm 6 m/s 739 mmHg 59%
    18:00 +14°C° 0 mm 6 m/s 739 mmHg 65%
    19:00 +14°C° 0 mm 6 m/s 738 mmHg 67%
    20:00 +14°C° 0 mm 6 m/s 738 mmHg 68%
    21:00 +13°C° 0 mm 6 m/s 737 mmHg 70%
    22:00 +13°C° 0.2 mm 6 m/s 737 mmHg 70%
    23:00 +13°C° 0.2 mm 6 m/s 737 mmHg 71%

    25 Outubro, Quinta-feira

    Tempo Temperatura Precipitação Vento Pressão Humidade
    00:00 +11°C° 0.2 mm 6 m/s 736 mmHg 71%
    01:00 +12°C° 0.4 mm 5 m/s 736 mmHg 73%
    02:00 +10°C° 0.4 mm 5 m/s 736 mmHg 74%
    03:00 +10°C° 0.4 mm 4 m/s 736 mmHg 76%
    04:00 +10°C° 0.4 mm 4 m/s 736 mmHg 77%
    05:00 +9°C° 0.4 mm 3 m/s 736 mmHg 77%
    06:00 +9°C° 0.4 mm 3 m/s 736 mmHg 78%
    07:00 +9°C° 0.1 mm 3 m/s 736 mmHg 73%
    08:00 +8°C° 0.1 mm 4 m/s 736 mmHg 68%
    09:00 +8°C° 0.1 mm 4 m/s 737 mmHg 64%
    10:00 +8°C° 0 mm 4 m/s 737 mmHg 58%
    11:00 +10°C° 0 mm 4 m/s 738 mmHg 51%
    12:00 +10°C° 0 mm 4 m/s 738 mmHg 45%
    13:00 +9°C° 0 mm 5 m/s 738 mmHg 44%
    14:00 +9°C° 0 mm 5 m/s 738 mmHg 44%
    15:00 +9°C° 0 mm 5 m/s 738 mmHg 43%
    16:00 +8°C° 0 mm 5 m/s 739 mmHg 44%
    17:00 +7°C° 0 mm 5 m/s 739 mmHg 46%
    18:00 +6°C° 0 mm 4 m/s 740 mmHg 47%
    19:00 +6°C° 0 mm 4 m/s 740 mmHg 51%
    20:00 +5°C° 0 mm 5 m/s 741 mmHg 56%
    21:00 +5°C° 0 mm 5 m/s 742 mmHg 60%
    22:00 +5°C° 0 mm 4 m/s 742 mmHg 61%
    23:00 +4°C° 0 mm 4 m/s 742 mmHg 62%
    Mostrar mais